Temperature
13 12 11 12 12 12 12 12 12 12 13 12 11 11 12 13 13 12 12 12 11 11 10 10 10 10 10 9 9 9 9 9 9 9 9 10 9 9 10 10 10 10 10 10
13 11 12 12 13 13 13 12 12 12 12 12 11 11 12 13 12 12 12 11 11 10 10 10 9 9 9 9 9 9 9 9 9 9 9 9 9 9 9 9 9 9 9 9
12 12 13 13 12 12 12 12 11 11 11 12 11 11 11 12 13 12 12 11 11 10 10 9 9 9 9 9 9 9 9 9 8 9 9 9 8 8 9 9 9 9 9 9
12 13 12 12 12 12 11 12 11 11 10 9 11 9 11 11 11 11 11 11 10 10 9 9 9 9 9 9 9 8 8 8 8 8 8 8 8 8 8 8 9 9 9 9
12 12 11 11 12 11 11 11 11 10 10 9 10 9 10 11 11 11 11 11 10 10 9 9 9 9 9 8 8 8 8 8 8 8 8 8 8 8 8 8 8 8 8 9
11 12 11 11 11 11 11 11 11 10 10 9 10 9 10 10 11 10 11 11 10 9 9 9 8 8 8 8 8 8 8 8 8 8 8 8 8 8 8 8 8 8 8 8
12 12 11 11 10 11 11 9 9 9 9 10 10 10 9 11 11 11 10 10 10 9 9 8 8 8 8 8 8 8 8 8 8 7 7 7 7 7 7 7 8 8 8 8
11 10 11 11 10 10 10 10 9 9 9 9 10 9 10 11 11 11 10 10 9 9 8 8 8 8 7 7 7 7 7 7 7 7 7 7 7 7 7 7 7 7 7 8
11 11 11 11 11 10 10 9 10 9 9 9 10 11 11 11 10 10 10 10 9 8 8 8 8 7 7 7 7 7 7 7 7 7 7 7 7 7 7 7 7 7 7 7
12 10 11 10 10 10 10 10 9 8 9 9 10 10 9 9 9 9 9 9 9 8 8 7 7 7 7 7 7 7 7 6 6 6 6 6 6 7 7 7 7 7 7 7
11 10 10 10 10 10 9 10 10 9 9 8 9 9 11 10 9 9 9 9 8 8 8 7 7 7 7 7 7 6 6 6 6 6 6 6 6 6 6 6 6 6 6 6
11 10 9 10 10 10 10 10 10 8 9 9 8 9 11 10 10 10 9 9 8 8 7 7 7 7 7 6 6 6 6 6 6 6 6 6 6 6 6 6 6 6 6 6
10 9 8 9 9 9 9 10 10 9 8 7 8 9 10 10 10 10 9 9 8 8 7 7 7 6 6 6 6 6 6 6 6 6 6 6 6 6 6 6 6 6 6 6
10 9 9 9 10 9 9 9 9 8 6 7 8 9 10 9 9 9 9 8 8 7 7 7 6 6 6 6 6 6 6 6 5 5 5 5 5 5 5 5 5 5 5 5
9 8 9 9 10 10 9 9 9 8 8 8 9 10 10 9 9 9 9 8 7 7 7 6 6 6 6 6 5 5 5 5 5 5 5 5 5 5 5 5 5 5 5 5
8 8 8 7 9 9 8 8 9 8 9 9 9 9 10 10 9 9 8 8 7 7 6 6 6 5 5 5 5 5 5 5 5 5 5 5 4 4 4 4 4 4 4 4
7 7 7 7 8 8 7 8 8 8 8 9 8 9 9 8 8 8 8 7 7 6 6 5 5 5 5 5 5 5 5 5 5 5 4 4 4 4 4 4 4 4 4 4
7 7 6 6 7 6 9 9 9 9 9 9 9 9 9 8 8 8 7 7 6 6 5 5 5 4 4 4 4 4 4 4 4 4 4 4 4 4 4 4 4 4 4 4
7 7 6 5 6 7 9 8 8 8 8 8 8 8 8 8 7 7 7 6 6 5 5 5 4 4 4 4 4 4 4 4 4 4 4 4 4 3 3 4 4 4 3 3
5 6 5 5 6 7 9 8 8 8 6 7 8 7 7 6 5 5 6 6 5 5 5 4 4 4 4 4 4 4 4 3 3 3 3 3 3 3 3 3 3 3 3 3
4 4 4 5 5 7 7 7 7 6 6 7 7 7 6 6 5 6 6 5 5 4 4 4 4 4 4 3 3 3 3 3 3 3 3 3 3 3 3 3 3 2 2 2
4 4 4 5 5 6 6 6 5 6 7 7 7 7 6 6 5 5 5 4 4 4 4 4 3 3 3 3 3 3 3 3 3 3 3 2 2 2 2 2 2 2 2 2
5 5 5 5 6 6 6 6 7 7 6 6 6 6 5 5 5 4 4 4 4 4 3 3 3 3 3 3 2 2 2 2 2 2 2 2 2 2 2 2 2 1 1 1
5 5 5 5 6 6 6 6 6 6 6 5 5 5 5 4 4 4 3 3 3 3 3 3 3 3 2 2 2 2 2 2 2 2 2 2 1 1 1 1 1 1 1 0
4 4 4 4 5 6 6 5 5 5 5 5 4 4 4 4 3 3 3 3 3 2 2 2 2 2 2 2 2 2 2 1 1 1 1 1 1 1 1 1 1 0 0 -0
4 3 3 4 5 4 5 5 5 4 4 4 4 3 3 3 3 2 2 2 2 2 2 2 2 2 2 1 1 1 1 1 1 1 1 1 0 0 0 -0 0 0 -0 -0
Wind_Speed
3 1 2 3 3 5 7 7 7 6 4 5 6 8 8 5 4 3 2 3 2 1 0 1 2 2 2 3 4 4 3 3 3 2 2 2 2 2 2 2 3 3 4 4
2 3 2 4 5 6 7 7 6 5 5 6 7 8 6 3 2 2 2 2 3 2 2 2 2 2 2 3 3 4 4 3 3 2 2 2 2 2 2 2 3 3 3 2
3 1 2 5 5 6 6 5 5 6 7 5 6 6 3 2 1 2 2 2 3 2 1 1 1 2 2 3 3 3 3 3 3 4 3 3 2 2 1 2 1 1 2 1
3 1 3 5 4 5 5 4 6 6 5 4 3 4 4 1 2 3 3 3 3 3 2 1 1 2 2 3 4 3 3 3 3 4 4 4 2 2 1 2 1 1 2 1
3 0 3 4 3 4 4 5 7 7 6 5 4 4 4 0 2 3 3 3 4 3 3 2 1 2 2 3 4 4 4 3 3 3 4 4 3 2 1 2 2 1 1 2
5 2 2 3 3 4 5 6 7 5 3 4 4 3 4 1 2 3 3 4 4 4 3 3 2 3 3 3 4 4 4 3 2 3 3 3 3 3 2 2 2 2 1 1
3 5 4 2 3 1 2 3 2 2 2 4 1 2 4 1 3 3 3 4 4 4 4 3 3 3 3 3 3 3 4 3 2 3 3 3 3 3 3 3 3 3 2 1
2 3 4 2 1 2 3 1 0 2 3 3 2 3 2 2 3 4 3 4 4 4 4 3 2 1 2 3 3 3 3 2 2 2 2 2 3 3 2 2 2 2 2 2
3 2 3 3 1 2 2 0 1 2 5 4 4 2 1 2 3 4 4 4 4 4 3 3 2 2 1 2 2 3 3 2 2 2 2 1 2 2 3 2 2 2 2 2
3 3 2 4 3 4 3 2 1 2 3 4 4 3 2 1 1 2 3 3 4 4 3 3 2 1 1 1 2 2 3 2 2 2 2 2 1 2 2 2 2 2 2 2
4 3 2 3 5 4 4 3 3 3 3 2 4 4 1 2 1 1 1 2 3 3 4 3 2 1 1 1 2 2 2 2 2 2 2 2 1 1 2 2 2 2 2 3
3 2 4 4 1 1 3 3 3 2 3 3 3 4 2 4 3 2 2 3 3 3 3 3 2 2 1 1 1 1 1 1 2 2 2 2 2 1 1 2 2 2 3 3
3 3 2 2 1 2 4 5 5 3 2 4 4 5 1 2 2 2 3 3 3 3 3 3 2 1 1 1 0 0 0 1 1 1 2 2 2 2 2 2 2 3 3 3
2 4 6 6 3 2 4 6 6 5 4 5 7 7 4 2 1 2 2 2 3 2 3 3 3 1 1 1 0 0 1 1 1 2 2 3 3 3 2 2 2 2 2 3
3 5 7 8 7 5 7 8 8 9 9 7 7 7 6 3 1 0 1 1 2 2 3 3 3 3 2 2 1 1 1 1 1 2 2 3 2 2 2 2 2 2 2 3
4 5 5 7 7 7 10 10 11 11 11 12 12 11 4 1 1 1 1 1 2 2 3 3 4 4 3 2 2 2 2 2 1 2 2 2 2 2 2 2 2 2 2 3
4 4 3 5 4 5 9 9 11 8 7 8 10 8 1 1 1 1 0 1 1 2 3 3 3 3 3 3 2 2 2 2 1 2 2 2 3 3 3 3 3 3 3 3
6 5 3 3 3 9 6 2 4 6 7 7 5 3 1 1 1 1 1 0 1 2 3 3 3 3 3 3 3 2 2 1 2 2 2 2 2 3 3 3 4 4 3 4
7 7 4 3 5 9 5 3 4 5 5 5 5 3 0 2 2 1 1 2 2 2 2 2 2 3 3 3 3 2 2 1 2 3 3 2 2 3 3 4 4 3 3 4
5 6 5 5 6 7 3 3 2 3 4 2 3 2 1 2 1 2 1 3 3 3 3 3 3 3 3 3 3 3 3 2 3 3 3 3 2 3 4 4 3 3 3 4
5 6 9 9 7 7 1 3 5 4 4 2 2 2 2 2 2 0 2 2 2 3 3 3 3 3 3 3 3 3 3 3 3 3 3 3 3 3 3 3 3 3 3 3
7 6 7 7 8 8 3 5 5 3 1 2 2 2 2 1 1 1 1 2 2 2 3 3 3 4 3 3 3 3 3 3 3 3 3 3 3 3 2 2 3 3 3 3
7 7 5 7 6 1 5 4 2 2 2 1 1 1 2 1 1 1 1 2 2 2 2 3 3 4 4 3 3 4 4 3 3 3 3 3 3 2 2 2 3 2 2 3
3 1 2 4 4 2 3 2 1 1 1 1 1 1 1 1 1 1 2 2 2 2 2 2 3 4 4 4 4 4 4 3 3 3 4 3 3 3 2 2 2 2 3 3
4 3 4 5 4 2 2 1 1 0 1 1 1 0 1 2 2 2 2 2 2 3 2 2 3 4 5 4 4 4 4 3 3 4 3 3 3 3 3 2 2 3 3 4
5 5 6 6 4 3 4 2 1 1 1 1 1 1 1 2 2 2 3 3 3 3 3 3 4 4 5 4 5 4 4 3 3 3 3 3 2 3 3 3 3 4 5 6
Wind_Direction
199 254 291 317 317 298 300 292 293 304 327 310 284 289 296 299 298 300 314 318 315 339 40 83 86 112 123 125 131 125 116 111 108 113 119 124 124 112 102 102 109 99 100 108
258 247 294 306 292 284 289 291 300 311 328 309 286 285 284 287 298 288 305 323 339 5 27 31 58 98 129 134 131 133 140 138 127 117 120 128 119 123 132 107 92 94 96 103
262 305 311 290 296 299 291 297 309 310 316 280 288 284 245 234 346 8 15 15 6 11 43 51 89 118 123 120 128 139 140 134 130 122 109 112 99 97 80 99 101 106 110 112
270 245 292 288 300 310 294 345 315 309 311 288 277 291 268 242 13 6 4 18 14 29 38 85 126 131 135 124 129 134 129 131 137 129 134 144 144 151 166 152 140 137 128 135
275 7 298 288 309 305 289 313 290 278 278 285 264 260 274 245 339 358 10 22 32 31 28 55 113 124 120 123 134 137 129 135 151 142 148 150 139 142 135 129 136 146 152 152
244 210 255 293 302 267 284 286 268 246 257 269 243 229 287 324 341 9 19 23 27 30 32 57 87 100 103 116 126 136 140 142 154 150 153 155 149 143 136 146 162 172 172 169
235 197 181 218 288 255 300 327 341 322 239 251 191 222 265 340 50 46 26 24 21 25 35 49 71 91 106 117 126 136 139 145 159 161 163 168 162 156 166 184 184 173 176 194
254 241 173 175 262 288 257 284 44 285 292 305 295 247 248 62 56 54 45 42 37 35 27 33 49 88 116 123 132 139 134 139 153 160 157 166 163 163 177 192 195 183 184 199
257 242 139 162 183 283 297 204 275 277 288 278 250 211 124 44 57 41 36 39 31 32 25 28 43 58 104 134 144 150 141 144 160 160 149 167 168 169 179 185 199 190 186 192
290 269 199 152 191 226 268 308 270 243 298 293 282 251 241 248 345 12 23 19 19 23 30 38 40 59 72 131 146 143 146 153 171 171 180 195 184 172 176 175 191 200 196 194
266 255 216 189 206 199 190 217 235 246 241 268 296 290 59 142 116 75 13 15 23 24 18 17 29 64 76 91 126 138 148 143 178 197 185 185 198 184 178 187 196 200 198 193
208 248 246 225 168 159 224 225 214 238 266 252 268 274 71 93 80 74 48 31 32 38 24 9 24 37 45 71 129 158 178 179 203 198 186 197 206 192 194 206 205 197 203 202
189 216 261 244 214 201 233 225 235 259 283 254 251 259 167 78 66 56 48 34 35 34 22 11 20 30 14 11 353 143 175 202 235 209 196 206 201 203 213 219 212 202 208 210
236 238 223 233 258 205 248 234 220 212 220 249 240 260 277 289 331 24 35 31 32 28 12 1 353 358 5 5 325 264 224 207 218 209 203 211 217 219 231 244 233 220 214 218
225 246 255 268 280 260 251 246 227 221 226 240 264 272 282 287 289 316 30 26 15 10 8 0 349 348 1 357 342 328 297 261 216 206 218 226 226 219 236 250 247 237 232 235
219 249 272 270 255 260 263 248 236 234 237 247 264 274 276 352 26 37 17 18 347 350 354 354 351 351 347 339 331 325 308 297 272 238 231 228 224 226 232 240 247 243 243 243
211 227 248 259 254 286 262 237 222 220 221 224 243 254 242 294 251 244 236 314 329 350 350 350 345 341 334 327 312 295 286 289 267 253 240 225 221 227 228 235 237 235 232 236
222 221 224 254 270 245 239 171 190 214 232 221 240 249 223 215 227 172 111 31 359 353 345 344 341 337 333 330 330 318 310 295 281 275 259 244 233 237 235 233 238 239 236 233
232 217 220 216 248 265 245 211 176 193 245 215 224 242 284 68 18 287 90 62 30 9 357 348 340 333 333 337 337 335 324 317 303 290 275 268 248 245 243 243 246 247 243 245
230 227 220 221 235 245 240 143 127 126 250 200 182 198 129 90 263 262 55 53 30 19 10 360 352 349 346 339 340 332 317 313 300 294 289 283 266 253 250 247 251 255 248 247
186 204 215 226 239 257 216 132 120 176 242 150 147 168 160 198 226 210 48 38 23 11 4 3 353 342 333 332 334 319 313 301 298 302 297 285 270 260 256 255 254 253 253 251
181 186 202 206 225 245 143 137 175 210 94 113 133 157 161 162 76 60 37 8 358 355 357 360 349 336 333 335 329 314 308 307 316 312 299 287 276 274 272 256 255 247 244 247
203 199 202 206 217 223 156 165 147 110 131 131 129 122 137 164 247 301 316 320 325 333 343 347 340 330 326 328 328 313 309 317 320 311 301 296 291 279 265 255 257 260 248 247
242 248 248 256 250 202 189 141 86 98 116 94 98 104 135 221 252 272 287 298 309 320 327 330 328 320 316 323 325 310 310 317 311 300 296 295 292 289 282 274 258 253 253 250
228 204 234 258 276 296 232 219 214 184 112 107 107 178 216 220 249 258 267 277 288 302 308 308 302 300 304 317 317 313 313 313 304 297 293 293 290 285 286 280 268 261 258 248
223 219 220 242 236 231 257 255 256 233 235 208 197 274 267 226 251 271 274 274 277 283 292 297 297 298 305 313 310 309 311 303 292 293 292 287 286 287 282 285 299 286 272 281
Height
1517 1520 1520 1517 1516 1515 1514 1513 1513 1509 1507 1507 1506 1503 1499 1497 1496 1494 1493 1492 1491 1490 1490 1489 1489 1489 1490 1491 1492 1492 1493 1493 1494 1495 1496 1498 1500 1502 1504 1507 1508 1510 1511 1513
1517 1519 1517 1515 1514 1513 1512 1512 1511 1509 1507 1506 1504 1501 1496 1494 1494 1493 1492 1491 1490 1489 1488 1487 1487 1488 1488 1489 1490 1491 1492 1492 1493 1494 1495 1497 1499 1501 1503 1504 1506 1508 1510 1511
1517 1516 1514 1514 1513 1512 1511 1512 1512 1511 1508 1504 1505 1502 1495 1492 1491 1491 1491 1490 1489 1487 1487 1486 1486 1486 1487 1487 1488 1489 1490 1491 1492 1493 1494 1495 1498 1499 1501 1503 1504 1506 1508 1509
1515 1513 1514 1513 1513 1513 1513 1510 1510 1511 1514 1512 1508 1512 1497 1492 1491 1490 1489 1489 1487 1486 1486 1485 1485 1485 1486 1487 1487 1489 1490 1490 1492 1492 1493 1494 1495 1497 1498 1501 1502 1504 1505 1507
1514 1513 1514 1513 1512 1512 1512 1510 1510 1510 1511 1512 1506 1510 1500 1491 1491 1490 1489 1488 1487 1486 1485 1484 1484 1484 1485 1486 1487 1488 1488 1489 1491 1491 1492 1494 1494 1496 1497 1499 1500 1502 1503 1505
1513 1512 1513 1512 1511 1511 1510 1509 1507 1507 1511 1515 1505 1508 1501 1493 1490 1489 1488 1488 1487 1486 1485 1484 1484 1484 1484 1485 1486 1486 1487 1488 1489 1490 1490 1491 1493 1494 1495 1497 1498 1500 1501 1502
1511 1510 1511 1512 1512 1510 1511 1515 1517 1516 1515 1510 1500 1503 1500 1489 1487 1488 1488 1488 1487 1486 1485 1484 1483 1483 1484 1484 1485 1485 1486 1486 1488 1488 1489 1490 1492 1493 1494 1495 1496 1497 1498 1499
1514 1515 1509 1510 1511 1513 1511 1513 1522 1523 1516 1508 1503 1503 1496 1488 1487 1488 1488 1488 1487 1487 1485 1484 1483 1483 1483 1484 1484 1484 1485 1485 1486 1487 1488 1489 1491 1491 1492 1493 1494 1495 1496 1497
1511 1511 1507 1508 1509 1511 1510 1513 1512 1517 1512 1512 1503 1493 1491 1488 1488 1488 1488 1488 1487 1487 1486 1484 1484 1483 1483 1483 1484 1484 1484 1485 1486 1487 1487 1488 1489 1490 1490 1491 1492 1493 1494 1495
1506 1511 1507 1507 1510 1510 1510 1509 1513 1517 1517 1513 1500 1495 1497 1492 1490 1489 1488 1488 1487 1487 1486 1485 1484 1483 1483 1483 1483 1484 1484 1484 1485 1486 1486 1487 1488 1488 1489 1489 1490 1490 1491 1492
1506 1510 1509 1508 1508 1507 1510 1510 1510 1511 1511 1515 1510 1502 1487 1488 1487 1488 1488 1488 1487 1486 1485 1484 1484 1483 1483 1483 1483 1483 1483 1483 1484 1484 1485 1485 1486 1486 1486 1487 1487 1488 1488 1489
1504 1508 1510 1504 1502 1502 1504 1504 1507 1514 1511 1507 1510 1505 1486 1486 1486 1486 1487 1487 1486 1486 1485 1484 1483 1483 1482 1482 1482 1482 1482 1482 1482 1482 1483 1483 1484 1484 1484 1484 1485 1485 1485 1486
1503 1507 1511 1507 1508 1506 1504 1502 1502 1504 1509 1510 1510 1501 1486 1486 1486 1486 1487 1487 1486 1485 1484 1484 1483 1482 1481 1481 1481 1480 1480 1480 1480 1480 1480 1481 1481 1481 1481 1482 1482 1482 1482 1483
1502 1503 1506 1506 1500 1500 1501 1500 1500 1504 1512 1507 1499 1492 1487 1486 1486 1485 1485 1486 1485 1485 1484 1483 1482 1481 1480 1480 1479 1479 1479 1478 1478 1478 1478 1478 1479 1479 1479 1479 1479 1479 1479 1479
1501 1503 1498 1496 1494 1494 1495 1495 1496 1498 1498 1499 1490 1486 1484 1484 1484 1484 1484 1485 1484 1484 1483 1482 1481 1480 1479 1478 1478 1477 1476 1476 1476 1475 1475 1475 1476 1476 1476 1476 1475 1476 1476 1476
1499 1500 1498 1499 1493 1493 1493 1490 1490 1490 1490 1489 1487 1484 1480 1481 1482 1483 1483 1483 1483 1482 1482 1481 1479 1478 1477 1476 1475 1474 1474 1473 1473 1473 1472 1473 1473 1472 1472 1472 1472 1472 1472 1472
1498 1499 1500 1499 1492 1492 1492 1481 1482 1483 1481 1483 1484 1481 1479 1480 1480 1481 1482 1482 1481 1481 1480 1479 1478 1477 1475 1474 1473 1472 1471 1471 1470 1470 1469 1469 1469 1469 1469 1469 1468 1468 1468 1468
1495 1497 1500 1499 1497 1499 1478 1472 1472 1475 1475 1476 1476 1476 1477 1478 1478 1479 1480 1480 1480 1479 1478 1477 1476 1475 1473 1472 1471 1470 1469 1468 1467 1467 1466 1466 1466 1466 1465 1465 1465 1464 1464 1464
1490 1493 1496 1498 1495 1483 1474 1471 1471 1474 1474 1472 1474 1475 1475 1476 1477 1478 1478 1478 1478 1477 1477 1475 1474 1473 1471 1470 1469 1468 1467 1466 1465 1464 1464 1463 1463 1462 1462 1461 1461 1460 1460 1459
1488 1489 1494 1493 1491 1482 1470 1469 1468 1472 1475 1471 1471 1473 1474 1475 1479 1477 1476 1476 1475 1475 1474 1473 1472 1470 1469 1468 1466 1465 1464 1463 1462 1462 1461 1461 1460 1459 1458 1458 1457 1457 1456 1455
1488 1489 1490 1489 1486 1475 1469 1468 1470 1478 1474 1469 1469 1471 1473 1474 1475 1475 1474 1474 1474 1473 1472 1471 1469 1468 1466 1465 1464 1463 1462 1461 1460 1459 1458 1458 1457 1456 1455 1454 1454 1453 1452 1451
1480 1483 1484 1483 1483 1477 1468 1469 1472 1471 1468 1468 1468 1470 1471 1472 1472 1472 1472 1472 1471 1470 1469 1468 1467 1465 1464 1463 1462 1460 1459 1458 1457 1456 1455 1454 1453 1452 1452 1451 1450 1449 1448 1447
1471 1472 1472 1472 1471 1465 1465 1465 1466 1466 1467 1467 1467 1468 1469 1469 1470 1470 1470 1469 1469 1468 1467 1466 1465 1463 1462 1461 1459 1458 1456 1455 1454 1453 1452 1450 1450 1449 1448 1447 1446 1445 1444 1443
1466 1465 1466 1466 1463 1462 1463 1463 1464 1464 1465 1465 1466 1466 1467 1467 1467 1467 1467 1467 1466 1465 1464 1463 1462 1460 1459 1458 1457 1455 1453 1452 1451 1449 1448 1447 1446 1445 1444 1443 1442 1441 1440 1439
1464 1465 1465 1464 1462 1461 1461 1461 1462 1462 1463 1463 1463 1464 1464 1464 1464 1464 1464 1463 1463 1462 1462 1461 1459 1458 1456 1455 1454 1452 1451 1449 1447 1446 1445 1444 1443 1442 1441 1440 1439 1438 1437 1436
1460 1461 1463 1461 1459 1460 1459 1459 1460 1460 1460 1460 1460 1460 1461 1461 1461 1461 1461 1460 1460 1459 1458 1457 1456 1455 1454 1452 1451 1449 1448 1446 1444 1443 1442 1440 1439 1438 1437 1436 1435 1434 1433 1432